{"data":{"norad_id":67080,"epoch":"2026-09-20T08:59:11.242752Z","epoch_age_seconds":89876,"freshness":"FRESH","line1":"1 67080U 25298F   26263.37443568  .00002837  00000+0  24545-3 0  9998","line2":"2 67080  69.9988 243.4119 0003725 265.0781  94.9953 14.98331383 42381","mean_motion":14.98331383,"eccentricity":0.0003725,"inclination_deg":69.9988,"raan_deg":243.4119,"arg_perigee_deg":265.0781,"mean_anomaly_deg":94.9953,"bstar":0.00024545,"rev_number":4238,"period_min":96.106910416359,"perigee_km":569.46266887553,"apogee_km":574.64055939306,"semimajor_km":6950.1886141343,"source":"CELESTRAK","updated_at":"2026-09-21T09:00:36.098294Z"}}